EW7351 Weather Reports


time (UTC)temp
F
wind
direction
speed
knots
gust
knots
rain 1hr
in
rain 24hr
in
rain mn
in
humidity
%
barometer
mb
20260505014652 76 232 4.3 12.2 0.00 0.00 0.00 62 1005.0
20260505014146 76 171 5.2 12.2 0.00 0.00 0.00 61 1005.0
20260505013643 76 216 5.2 11.3 0.00 0.00 0.00 61 1004.9
20260505013137 76 219 5.2 11.3 0.00 0.00 0.00 61 1004.9
20260505012611 76 234 5.2 14.8 0.00 0.00 0.00 61 1004.8
20260505012111 76 221 6.1 14.8 0.00 0.00 0.00 61 1004.8
20260505011547 76 270 5.2 13.0 0.00 0.00 0.00 60 1004.8
20260505011021 76 160 5.2 13.0 0.00 0.00 0.00 60 1004.8
20260505010522 76 154 6.1 11.3 0.00 0.00 0.00 60 1004.8
20260505005957 77 233 7.0 12.2 0.00 0.00 0.00 59 1004.7
20260505005435 77 257 6.1 12.2 0.00 0.00 0.00 59 1004.8
20260505004934 77 351 5.2 14.8 0.00 0.00 0.00 59 1004.9
20260505004654 77 200 6.1 14.8 0.00 0.00 0.00 58 1004.9
20260505003934 77 175 7.0 16.5 0.00 0.00 0.00 58 1005.0
20260505003418 77 131 7.8 16.5 0.00 0.00 0.00 57 1004.9
20260505002918 78 139 8.7 17.4 0.00 0.00 0.00 57 1004.8
20260505002356 78 179 7.8 17.4 0.00 0.00 0.00 56 1004.8
20260505001842 78 225 7.0 15.6 0.00 0.00 0.00 56 1005.0
20260505001829 78 164 7.0 15.6 0.00 0.00 0.00 56 1005.0
20260505000821 78 153 7.8 14.8 0.00 0.00 0.00 56 1005.1
20260505000310 78 207 7.8 14.8 0.00 0.00 0.00 56 1005.0
20260504235809 78 234 7.0 14.8 0.00 0.00 0.00 56 1005.2
20260504235306 78 155 7.0 14.8 0.00 0.00 0.00 55 1005.1
20260504234805 78 201 7.8 15.6 0.00 0.00 0.00 55 1005.2
20260504234304 78 231 8.7 16.5 0.00 0.00 0.00 55 1005.2
20260504233738 78 101 8.7 20.0 0.00 0.00 0.00 55 1005.2
20260504233120 79 237 7.8 16.5 0.00 0.00 0.00 55 1005.2
20260504232600 79 257 8.7 19.1 0.00 0.00 0.00 55 1005.1
20260504232100 79 219 8.7 19.1 0.00 0.00 0.00 54 1005.2
20260504231602 79 234 7.8 17.4 0.00 0.00 0.00 54 1005.5
20260504231041 80 229 7.8 16.5 0.00 0.00 0.00 53 1005.5
20260504230515 80 178 8.7 18.2 0.00 0.00 0.00 52 1005.5
20260504225950 80 132 7.8 18.2 0.00 0.00 0.00 51 1005.6
20260504225450 81 178 7.8 14.8 0.00 0.00 0.00 52 1005.6
20260504224950 81 222 7.8 16.5 0.00 0.00 0.00 52 1005.7
20260504224446 81 224 7.8 16.5 0.00 0.00 0.00 53 1005.8
20260504223949 80 155 8.7 15.6 0.00 0.00 0.00 52 1005.6
20260504223446 81 274 7.8 15.6 0.00 0.00 0.00 52 1005.6
20260504222949 80 175 7.8 13.9 0.00 0.00 0.00 52 1005.5
20260504222421 81 195 7.8 15.6 0.00 0.00 0.00 52 1005.7
20260504222119 81 134 8.7 17.4 0.00 0.00 0.00 52 1005.7
20260504221402 81 210 9.6 20.9 0.00 0.00 0.00 51 1005.8
20260504220857 81 218 9.6 20.9 0.00 0.00 0.00 51 1005.8
20260504220357 81 158 8.7 19.1 0.00 0.00 0.00 51 1006.0
20260504215855 81 165 8.7 19.1 0.00 0.00 0.00 51 1006.0
20260504215331 81 231 8.7 17.4 0.00 0.00 0.00 51 1006.1
20260504214803 81 173 8.7 17.4 0.00 0.00 0.00 52 1006.2
20260504214242 80 249 7.8 14.8 0.00 0.00 0.00 52 1006.3
20260504213735 80 114 8.7 14.8 0.00 0.00 0.00 52 1006.3
20260504213459 80 205 9.6 18.2 0.00 0.00 0.00 51 1006.4
20260504212707 80 225 8.7 18.2 0.00 0.00 0.00 50 1006.5
20260504212139 80 159 8.7 16.5 0.00 0.00 0.00 51 1006.7
20260504211614 80 167 8.7 15.6 0.00 0.00 0.00 51 1006.7
20260504211109 80 139 7.8 16.5 0.00 0.00 0.00 51 1006.8
20260504210602 80 178 8.7 16.5 0.00 0.00 0.00 49 1006.8
20260504210101 80 177 7.8 16.5 0.00 0.00 0.00 49 1007.0
20260504205532 80 234 7.8 20.0 0.00 0.00 0.00 51 1007.1
20260504205031 80 69 8.7 20.0 0.00 0.00 0.00 49 1007.1
20260504204524 81 219 7.8 15.6 0.00 0.00 0.00 50 1007.3
20260504204248 81 234 8.7 17.4 0.00 0.00 0.00 50 1007.3
20260504203518 81 213 8.7 17.4 0.00 0.00 0.00 48 1007.4
20260504203014 81 155 7.8 13.9 0.00 0.00 0.00 49 1007.5
20260504202512 81 170 7.8 16.5 0.00 0.00 0.00 48 1007.6
20260504202011 80 223 8.7 16.5 0.00 0.00 0.00 47 1007.8
20260504201506 80 233 8.7 16.5 0.00 0.00 0.00 48 1007.8
20260504201002 80 146 7.8 16.5 0.00 0.00 0.00 47 1008.0
20260504200501 80 203 8.7 15.6 0.00 0.00 0.00 47 1008.1
20260504200214 80 241 8.7 17.4 0.00 0.00 0.00 47 1008.2
20260504195428 80 166 8.7 17.4 0.00 0.00 0.00 48 1008.3
20260504194924 80 216 8.7 15.6 0.00 0.00 0.00 48 1008.4
20260504194637 80 243 7.8 14.8 0.00 0.00 0.00 47 1008.4
20260504193857 80 147 7.0 14.8 0.00 0.00 0.00 46 1008.4
20260504193329 80 203 7.0 13.9 0.00 0.00 0.00 46 1008.5
20260504192827 80 242 7.0 13.9 0.00 0.00 0.00 47 1008.6
20260504192519 80 236 7.8 16.5 0.00 0.00 0.00 45 1008.7
20260504191755 80 259 7.8 16.5 0.00 0.00 0.00 46 1008.9
20260504191452 80 155 7.8 14.8 0.00 0.00 0.00 46 1009.0
20260504190705 79 133 7.0 14.8 0.00 0.00 0.00 46 1009.0
20260504190138 79 128 7.8 18.2 0.00 0.00 0.00 45 1009.0
20260504185613 79 214 8.7 18.2 0.00 0.00 0.00 47 1009.1
20260504185044 79 219 7.8 18.2 0.00 0.00 0.00 44 1009.1
20260504184541 80 263 7.0 15.6 0.00 0.00 0.00 44 1009.2
20260504184017 79 211 7.0 15.6 0.00 0.00 0.00 45 1009.3
20260504183512 79 229 7.0 16.5 0.00 0.00 0.00 44 1009.4
20260504183011 79 231 7.0 16.5 0.00 0.00 0.00 45 1009.5
20260504182706 78 131 7.8 13.9 0.00 0.00 0.00 43 1009.6
20260504181920 78 237 7.8 17.4 0.00 0.00 0.00 43 1009.8
20260504181350 78 165 7.8 17.4 0.00 0.00 0.00 43 1009.8
20260504180848 78 217 8.7 16.5 0.00 0.00 0.00 43 1009.8
20260504180320 78 222 9.6 19.1 0.00 0.00 0.00 42 1009.7
20260504175817 78 174 10.4 19.1 0.00 0.00 0.00 43 1009.7
20260504175314 78 217 10.4 18.2 0.00 0.00 0.00 43 1010.1
20260504174813 77 123 10.4 18.2 0.00 0.00 0.00 42 1010.2
20260504174247 77 150 9.6 17.4 0.00 0.00 0.00 42 1010.1
20260504173721 77 224 9.6 17.4 0.00 0.00 0.00 45 1010.3
20260504173155 77 226 8.7 21.7 0.00 0.00 0.00 44 1010.2
20260504172627 77 190 7.8 21.7 0.00 0.00 0.00 43 1010.2
20260504172123 77 252 7.8 16.5 0.00 0.00 0.00 44 1010.4
20260504171559 76 250 7.8 16.5 0.00 0.00 0.00 46 1010.6
20260504171045 76 221 7.0 14.8 0.00 0.00 0.00 47 1010.8
20260504170549 76 155 7.8 15.6 0.00 0.00 0.00 47 1010.7
20260504160204 73 251 8.7 21.7 0.00 0.00 0.00 52 1011.7
20260504160150 73 168 9.6 21.7 0.00 0.00 0.00 51 1011.9
20260504151144 70 147 7.8 17.4 0.00 0.00 0.00 58 1012.1
20260504150348 70 217 7.8 15.6 0.00 0.00 0.00 59 1011.9
20260504140620 67 219 7.8 16.5 0.00 0.00 0.00 63 1012.4
20260504140602 67 210 7.0 13.9 0.00 0.00 0.00 63 1012.4
20260504130450 64 127 4.3 12.2 0.00 0.00 0.00 68 1012.5
20260504130145 64 179 4.3 9.6 0.00 0.00 0.00 68 1012.5
20260504090124 63 230 4.3 10.4 0.00 0.00 0.00 62 1012.5
20260504081903 65 156 5.2 10.4 0.00 0.00 0.00 58 1012.6
20260504081601 65 271 5.2 13.0 0.00 0.00 0.00 58 1012.6
20260504080811 65 230 5.2 13.0 0.00 0.00 0.00 58 1012.6
20260504080309 65 250 5.2 11.3 0.00 0.00 0.00 57 1012.7
20260504050452 68 151 2.6 6.1 0.00 0.00 0.00 51 1014.5
20260504045949 68 155 2.6 6.1 0.00 0.00 0.00 51 1014.5
20260504045449 68 227 2.6 7.8 0.00 0.00 0.00 51 1014.6
20260504044924 68 132 2.6 7.8 0.00 0.00 0.00 50 1014.6
20260504044357 68 205 2.6 7.0 0.00 0.00 0.00 50 1014.6
20260504043853 68 271 2.6 7.0 0.00 0.00 0.00 50 1014.7
20260504043327 69 206 3.5 7.0 0.00 0.00 0.00 49 1014.6
20260504042825 69 250 3.5 8.7 0.00 0.00 0.00 49 1014.7
20260504042323 69 144 2.6 8.7 0.00 0.00 0.00 49 1014.7
20260504041822 69 217 2.6 6.1 0.00 0.00 0.00 49 1014.6
20260504041322 69 131 1.7 7.0 0.00 0.00 0.00 49 1014.7
20260504040823 69 211 2.6 7.0 0.00 0.00 0.00 49 1014.7
20260504040525 69 169 2.6 7.8 0.00 0.00 0.00 48 1014.7
20260504035733 69 210 2.6 7.8 0.00 0.00 0.00 48 1014.7
20260504035229 69 122 1.7 7.0 0.00 0.00 0.00 48 1014.7
20260504034730 69 181 2.6 7.0 0.00 0.00 0.00 48 1014.7
20260504034212 69 192 1.7 5.2 0.00 0.00 0.00 47 1014.7
20260504033716 69 133 0.9 4.3 0.00 0.00 0.00 47 1014.7
20260504033200 69 190 1.7 5.2 0.00 0.00 0.00 47 1014.7
20260504032701 69 158 1.7 5.2 0.00 0.00 0.00 46 1014.6
20260504032200 70 174 1.7 6.1 0.00 0.00 0.00 46 1014.6
20260504031702 70 235 1.7 6.1 0.00 0.00 0.00 46 1014.6
20260504031143 70 184 1.7 6.1 0.00 0.00 0.00 45 1014.5
20260504030631 70 226 1.7 5.2 0.00 0.00 0.00 45 1014.4
20260504030129 70 124 1.7 5.2 0.00 0.00 0.00 44 1014.4
20260504025840 71 210 1.7 5.2 0.00 0.00 0.00 45 1014.5
20260504025119 71 217 1.7 3.5 0.00 0.00 0.00 44 1014.4
20260504024611 71 159 1.7 5.2 0.00 0.00 0.00 44 1014.5
20260504024108 71 151 1.7 5.2 0.00 0.00 0.00 44 1014.5
20260504023605 71 191 1.7 5.2 0.00 0.00 0.00 43 1014.5
20260504023105 71 198 1.7 5.2 0.00 0.00 0.00 43 1014.5
20260504022815 71 251 1.7 6.1 0.00 0.00 0.00 43 1014.5
20260504022053 72 229 2.6 7.0 0.00 0.00 0.00 42 1014.5
20260504021554 72 134 3.5 7.0 0.00 0.00 0.00 41 1014.4
20260504021033 72 149 3.5 7.0 0.00 0.00 0.00 41 1014.4
20260504020512 73 210 3.5 8.7 0.00 0.00 0.00 41 1014.3
20260504020012 73 200 3.5 8.7 0.00 0.00 0.00 40 1014.3
20260504015735 73 186 3.5 7.8 0.00 0.00 0.00 40 1014.3
20260504015226 73 208 3.5 6.1 0.00 0.00 0.00 39 1014.3